Notices

What's New in latest Release from April 7th, 2021:

- Updated Glossary, including Speed of Maximum Gust, and Total Hourly Precipitation

- Updated national and regional climate services offices contacts and prices information

- Addition of station inventory lists for 1981-2010, 1971-2000, and 1961-1990 Normals.

If you haven't already, please take our survey and provide feedback about our website: https://eccc.sondage-survey.ca/f/LanguageSelection.aspx?s=442ca660-fcf1-47c0-95a9-59707d6fd709

Hourly Data Report for November 09, 2019

SHEARWATER RCS
NOVA SCOTIA
Current Station Operator: ECCC - MSC

44°37'47.000" N
63°30'48.000" W
24.00 m
8205092
71264
AAW

Download Data

Hourly Data (November 2019)
Hourly Data Report for November 9, 2019
TIME
LST
Temp Definition
°C
Dew Point Definition
°C
Rel Hum Definition
%
Precip. Amount Definition
mm

Wind Dir Definition
10's deg

Wind Spd Definition
km/h
Visibility Definition
km
Stn Press Definition
kPa
Hmdx Definition


Wind Chill Definition


Weather Definition


00:00 -0.9 -2.6 89 0.0 32 23   100.58   -7 LegendNANA
01:00 -1.5 -2.5 93 0.2 32 21   100.70   -7 LegendNANA
02:00 -2.0 -3.1 92 0.0 32 21   100.84   -8 LegendNANA
03:00 -1.7 -4.3 83 0.0 32 20   100.97   -7 LegendNANA
04:00 -2.1 -5.2 79 0.0 32 18   101.10   -8 LegendNANA
05:00 -2.4 -5.5 79 0.0 31 21   101.22   -8 LegendNANA
06:00 -2.7 -6.0 78 0.0 32 20   101.36   -9 LegendNANA
07:00 -3.1 -7.0 74 0.0 32 19   101.50   -9 LegendNANA
08:00 -2.6 -6.8 73 0.0 31 17   101.67   -8 LegendNANA
09:00 -1.7 -6.0 73 0.0 32 15   101.78   -7 LegendNANA
10:00 -1.0 -6.6 66 0.0 32 22   101.86   -7 LegendNANA
11:00 -0.2 -5.9 65 0.0 31 20   101.95   -5 LegendNANA
12:00 0.6 -5.0 66 0.0 31 17   101.95     LegendNANA
13:00 1.1 -5.9 60 0.0 30 15   101.94     LegendNANA
14:00 2.0 -6.0 55 0.0 31 13   101.97     LegendNANA
15:00 2.2 -7.6 48 0.0 31 13   102.03     LegendNANA
16:00 2.1 -8.3 46 0.0 29 8   102.06     LegendNANA
17:00 1.0 -7.4 53 0.0 24 7   102.13     LegendNANA
18:00 -0.7 -6.5 65 0.0 19 3   102.21   -2 LegendNANA
19:00 -1.7 -6.7 69 0.0 19 2   102.25   -2 LegendNANA
20:00 -1.5 -5.8 73 0.0 7 1   102.24   -2 LegendNANA
21:00 -2.3 -6.2 74 0.0   0   102.25     LegendNANA
22:00 -0.2 -5.0 70 0.0 31 9   102.24   -3 LegendNANA
23:00 -0.1 -4.3 73 0.0 27 6   102.24   -2 LegendNANA

Notes on Data Quality.

Legend

  • E = Estimated
  • M = Missing
  • NA = Not Available*
  • [empty] = Indicates an unobserved value
Date modified: